This is the latest recevied weather packets stored in our database for station/object KS5S. If no packets are shown the sender has not sent any weather packets the latest 10 day(s).
| Time | Temp. | Humidity | Pressure | Rain* | Wind** | Luminosity | Snow |
|---|---|---|---|---|---|---|---|
| 1778028514 | 26.67° C | 66% | 1002.7 hPa | 0 mm | - | 13 W/m² | - |
| 1778028212 | 26.67° C | 66% | 1002.9 hPa | 0 mm | - | 17 W/m² | - |
| 1778027907 | 26.67° C | 66% | 1002.9 hPa | 0 mm | - | 27 W/m² | - |
| 1778027604 | 26.67° C | 65% | 1002.9 hPa | 0 mm | - | 34 W/m² | - |
| 1778027300 | 27.22° C | 65% | 1002.9 hPa | 0 mm | - | 31 W/m² | - |
| 1778026997 | 28.33° C | 65% | 1002.8 hPa | 0 mm | - | 38 W/m² | - |
| 1778026693 | 28.89° C | 64% | 1003 hPa | 0 mm | - | 42 W/m² | - |
| 1778026390 | 29.44° C | 71% | 1002.7 hPa | 0 mm | - | 78 W/m² | - |
| 1778026087 | 29.44° C | 76% | 1002.7 hPa | 0 mm | - | 67 W/m² | - |
| 1778025784 | 29.44° C | 75% | 1002.6 hPa | 0 mm | - | 64 W/m² | - |
| 1778025481 | 29.44° C | 75% | 1002.3 hPa | 0 mm | - | 63 W/m² | - |
| 1778025179 | 30° C | 74% | 1002.2 hPa | 0 mm | - | 106 W/m² | - |
| 1778024875 | 30° C | 74% | 1002.4 hPa | 0 mm | - | 174 W/m² | - |
| 1778024573 | 30° C | 74% | 1002.2 hPa | 0 mm | - | 232 W/m² | - |
| 1778024270 | 30° C | 73% | 1002.3 hPa | 0 mm | - | 141 W/m² | - |
| 1778023968 | 30° C | 73% | 1002 hPa | 0 mm | - | 139 W/m² | - |
| 1778023665 | 30° C | 72% | 1002.2 hPa | 0 mm | - | 142 W/m² | - |
| 1778023362 | 30° C | 72% | 1001.9 hPa | 0 mm | - | 167 W/m² | - |
| 1778023058 | 30.56° C | 71% | 1001.9 hPa | 0 mm | - | 161 W/m² | - |
| 1778022758 | 30.56° C | 72% | 1002 hPa | 0 mm | - | 249 W/m² | - |
| 1778022455 | 30.56° C | 71% | 1002 hPa | 0 mm | - | 303 W/m² | - |
| 1778022152 | 31.11° C | 70% | 1001.7 hPa | 0 mm | - | 232 W/m² | - |
| 1778021848 | 31.67° C | 69% | 1001.9 hPa | 0 mm | - | 414 W/m² | - |
| 1778021546 | 31.67° C | 63% | 1001.9 hPa | 0 mm | - | 424 W/m² | - |
| 1778021241 | 31.67° C | 62% | 1001.9 hPa | 0 mm | - | 220 W/m² | - |
* Rain latest hour (hover to see other rain measurements)
** Current wind speed in m/s (hover to see current wind gust speed)